Location: Recife
(8.0585°S, 34.8848°W)
Time: 12:13:24
(UTC-03:00)

Transit 4A - Pass Details

Date: 15 April 2026
Orbit: 861 x 980 km, 66.8° (Epoch: 12 May)

Event Time Altitude Azimuth Distance (km) Brightness Sun altitude
Rises 02:20:23 0° 297° (WNW) 3,643 - -45.4°
Reaches altitude 10° 02:24:53 10° 268° (W) 2,680 - -44.3°
Maximum altitude 02:27:08 12° 246° (WSW) 2,524 - -43.7°
Drops below altitude 10° 02:29:23 10° 225° (SW) 2,658 - -43.1°
Sets 02:33:50 0° 195° (SSW) 3,576 - -42.1°
